SCP
0 0 0 0 0 0 0 0 0 0 0 0 0 0 0 0 0 0 0 0 0 0 0 0 0 0 0 0 0 0 0 0 0 0 0 0 0 0 0 0 0 0 0 0
0 0 0 0 0 0 0 0 0 0 0 0 0 0 0 0 0 0 0 0 0 0 0 0 0 0 0 0 0 0 0 0 0 0 0 0 0 0 0 0 0 0 0 0
0 0 0 0 0 0 0 0 0 0 0 0 0 0 0 0 0 0 0 0 0 0 0 0 0 0 0 0 0 0 0 0 0 0 0 0 0 0 0 0 0 0 0 0
0 0 0 0 0 0 0 0 0 0 0 0 0 0 0 0 0 0 0 0 0 0 0 0 0 0 0 0 0 0 0 0 0 0 0 0 0 0 0 0 0 0 0 0
0 0 0 0 0 0 0 0 0 0 0 0 0 0 0 0 0 0 0 0 0 0 0 0 0 0 0 0 0 0 0 0 0 0 0 0 0 0 0 0 0 0 0 0
0 0 0 0 0 0 0 0 0 0 0 0 0 0 0 0 0 0 0 0 0 0 0 0 0 0 0 0 0 0 0 0 0 0 0 0 0 0 0 0 0 0 0 0
0 0 0 0 0 0 0 0 0 0 0 0 0 0 0 0 0 0 0 0 0 0 0 0 0 0 0 0 0 0 0 0 0 0 0 0 0 0 0 0 0 0 0 0
0 0 0 0 0 0 0 0 0 0 0 0 0 0 0 0 0 0 0 0 0 0 0 0 0 0 0 0 0 0 0 0 0 0 0 0 0 0 0 0 0 0 0 0
0 0 0 0 0 0 0 0 0 0 0 0 0 0 0 0 0 0 0 0 0 0 0 0 0 0 0 0 0 0 0 0 0 0 0 0 0 0 0 0 0 0 0 0
0 0 0 0 0 0 0 0 0 0 0 0 0 0 0 0 0 0 0 0 0 0 0 0 0 0 0 0 0 0 0 0 0 0 0 0 0 0 0 0 0 0 0 0
0 0 0 0 0 0 0 0 0 0 0 0 0 0 0 0 0 0 0 0 0 0 0 0 0 0 0 0 0 0 0 0 0 0 0 0 0 0 0 0 0 0 0 0
0 0 0 0 0 0 0 0 0 0 0 0 0 0 0 0 0 0 0 0 0 0 0 0 0 0 0 0 0 0 0 0 0 0 0 0 0 0 0 0 0 0 0 0
0 0 0 0 0 0 0 0 0 0 0 0 0 0 0 0 0 0 0 0 0 0 0 0 0 0 0 0 0 0 0 0 0 0 0 0 0 0 0 0 0 0 0 0
0 0 0 0 0 0 0 0 0 0 0 0 0 0 0 0 0 0 0 0 0 0 0 0 0 0 0 0 0 0 0 0 0 0 0 0 0 0 0 0 0 0 0 0
0 0 0 0 0 0 0 0 0 0 0 0 0 0 0 0 0 0 0 0 0 0 0 0 0 0 0 0 0 0 0 0 0 0 0 0 0 0 0 0 0 0 0 0
0 0 0 0 0 0 0 0 0 0 0 0 0 0 0 0 0 0 0 0 0 0 0 0 0 0 0 0 0 0 0 0 0 0 0 0 0 0 0 0 0 0 0 0
0 0 0 0 0 0 0 0 0 0 0 0 0 0 0 0 0 0 0 0 0 0 0 0 0 0 0 0 0 0 0 0 0 0 0 0 0 0 0 0 0 0 0 0
0 0 0 0 0 0 0 0 0 0 0 0 0 0 0 0 0 0 0 0 0 0 0 0 0 0 0 0 0 0 0 0 0 0 0 0 0 0 0 0 0 0 0 0
0 0 0 0 0 0 0 0 0 0 0 0 0 0 0 0 0 0 0 0 0 0 0 0 0 0 0 0 0 0 0 0 0 0 0 0 0 0 0 0 0 0 0 0
0 0 0 0 0 0 0 0 0 0 0 0 0 0 0 0 0 0 0 0 0 0 0 0 0 0 0 0 0 0 0 0 0 0 0 0 0 0 0 0 0 0 0 0
0 0 0 0 0 0 0 0 0 0 0 0 0 0 0 0 0 0 0 0 0 0 0 0 0 0 0 0 0 0 0 0 0 0 0 0 0 0 0 0 0 0 0 0
0 0 0 0 0 0 0 0 0 0 0 0 0 0 0 0 0 0 0 0 0 0 0 0 0 0 0 0 0 0 0 0 0 0 0 0 0 0 0 0 0 0 0 0
0 0 0 0 0 0 0 0 0 0 0 0 0 0 0 0 0 0 0 0 0 0 0 0 0 0 0 0 0 0 0 0 0 0 0 0 0 0 0 0 0 0 0 1
0 0 0 0 0 0 0 0 0 0 0 0 0 0 0 0 0 0 0 0 0 0 0 0 0 0 0 0 0 0 0 0 0 0 0 0 0 0 0 0 0 0 0 0
0 0 0 0 0 0 0 0 0 0 0 0 0 0 0 0 0 0 0 0 0 0 0 0 0 0 0 0 0 0 0 0 0 0 0 0 0 0 0 0 0 0 0 0
0 0 0 0 0 0 0 0 0 0 0 0 0 0 0 0 0 0 0 0 0 0 0 0 0 0 0 0 0 0 0 0 0 0 0 0 0 0 0 0 0 0 0 0
Wind_Speed
2 4 3 2 2 1 1 1 1 1 1 3 3 3 2 4 4 4 4 4 4 4 4 4 4 4 4 3 3 3 3 3 2 2 1 1 1 1 1 1 2 1 1 1
4 2 1 2 3 4 4 3 2 2 1 3 3 3 3 4 5 4 4 4 4 4 5 5 5 5 4 4 3 3 2 2 2 1 1 0 1 1 1 1 1 1 1 1
3 3 3 5 5 5 4 4 2 1 2 3 4 4 4 4 5 4 4 4 3 4 5 6 6 5 5 4 4 2 2 2 2 2 1 1 1 1 1 2 1 1 1 0
2 2 4 4 4 4 3 1 3 3 4 2 3 3 2 4 5 5 5 5 4 4 5 5 6 6 6 5 4 3 3 2 2 2 1 1 0 0 1 1 1 1 1 1
3 3 3 3 1 3 1 1 2 4 4 4 4 5 1 3 4 4 5 5 5 5 5 5 6 6 5 5 4 3 3 3 2 2 1 1 0 0 0 0 1 1 1 1
1 1 1 0 1 2 4 4 4 4 5 4 2 5 1 2 1 1 4 5 6 6 5 5 5 6 5 5 4 4 4 3 2 2 2 1 1 1 1 1 1 1 1 1
5 4 3 2 4 5 5 5 4 4 4 1 1 4 1 3 2 2 2 4 6 6 6 6 6 7 6 6 5 5 4 4 3 3 2 2 1 2 2 1 1 1 1 1
6 5 4 3 4 3 4 6 5 4 2 1 3 4 1 2 1 1 1 3 5 6 6 6 6 6 6 6 6 5 5 4 3 3 3 2 2 2 1 1 1 1 1 1
4 3 3 1 2 4 4 4 4 5 4 5 3 2 2 3 1 2 2 4 5 6 7 7 6 6 6 6 6 5 5 4 4 3 3 2 2 2 2 2 2 1 1 1
4 3 4 3 4 1 3 2 4 5 4 4 3 4 2 3 1 2 2 3 4 5 6 7 6 6 5 5 5 5 5 4 4 4 3 2 2 2 2 2 2 2 2 1
5 6 4 5 6 5 5 5 5 4 5 5 4 1 2 1 1 1 1 2 4 5 6 6 6 5 5 5 5 5 5 4 4 4 3 4 3 3 3 2 2 3 2 2
4 6 5 5 1 2 5 5 6 6 5 5 6 2 3 1 1 2 1 2 3 5 5 6 6 6 5 5 5 5 4 4 4 4 4 4 3 4 4 3 3 4 3 3
4 6 6 5 6 6 5 5 6 6 6 6 7 3 3 2 2 2 2 2 3 4 5 5 5 5 5 5 4 4 4 4 4 4 4 4 4 4 4 4 4 4 4 4
4 7 8 6 3 2 5 6 8 9 8 8 9 8 5 5 4 3 2 3 4 4 5 5 5 5 5 4 4 4 4 4 4 4 4 4 4 4 4 4 4 4 4 4
5 7 7 7 5 6 8 9 10 12 11 11 9 10 9 7 4 3 3 3 4 5 5 6 6 5 5 5 4 4 3 4 4 4 4 4 4 4 4 4 4 4 4 4
4 6 6 7 5 7 10 11 11 12 12 12 12 11 7 4 4 4 4 4 5 5 6 5 5 6 6 5 5 4 4 3 4 4 3 3 3 3 3 4 4 4 4 4
5 6 6 6 4 7 11 9 10 10 10 10 11 7 4 4 5 5 4 4 5 5 5 6 6 6 5 5 5 5 4 4 4 4 3 3 3 3 3 3 4 4 4 4
7 7 5 5 6 10 2 2 4 7 8 7 7 5 4 5 4 4 4 4 5 5 5 5 5 5 5 5 5 5 5 4 4 3 3 3 3 3 3 4 4 4 3 3
7 7 5 6 8 9 5 2 3 6 7 5 6 5 4 3 4 4 3 4 4 4 4 4 4 5 5 5 5 6 5 5 4 4 4 3 3 4 4 4 4 4 3 4
5 7 7 7 8 7 2 2 1 5 6 2 4 4 3 4 5 2 1 3 3 2 3 3 4 4 4 5 5 6 6 5 5 4 4 4 4 3 4 4 4 4 4 4
7 7 9 10 9 7 2 2 3 6 3 2 3 4 4 6 4 2 1 1 2 2 3 4 4 4 4 4 5 6 6 6 5 4 4 4 4 4 4 4 3 3 3 3
8 7 8 8 9 6 3 2 4 5 5 4 4 4 5 5 3 2 2 1 2 2 3 4 4 4 3 4 5 5 5 4 4 4 4 4 4 3 3 3 3 3 3 3
7 6 4 6 5 3 2 4 4 6 5 5 5 5 5 5 4 3 3 2 2 2 3 3 4 4 4 4 5 5 4 4 4 4 4 4 4 3 3 3 3 3 3 3
5 4 6 7 7 5 5 6 5 6 6 6 6 5 5 5 4 4 3 3 3 3 3 3 4 4 4 4 4 4 3 4 4 5 5 4 4 3 3 3 3 3 3 4
5 5 7 9 8 6 6 6 6 6 6 6 5 4 4 4 4 4 4 3 3 2 2 3 4 4 4 4 4 4 3 4 5 5 4 4 4 4 3 3 3 4 3 4
6 7 8 7 6 6 6 5 5 5 5 5 4 4 4 4 4 4 4 3 3 3 3 3 4 4 4 4 4 3 3 4 5 4 4 3 3 3 3 3 3 2 3 3
Wind_Direction
168 203 194 194 218 315 199 215 207 88 141 222 236 244 209 194 208 212 204 206 202 192 179 165 163 169 166 153 137 120 129 114 101 92 85 61 65 75 86 75 66 76 80 110
186 190 87 119 165 189 201 222 206 148 154 246 258 255 231 202 212 220 222 214 204 189 185 172 176 178 180 160 157 138 131 126 116 93 53 83 61 47 65 78 79 61 72 90
218 89 126 163 172 194 217 249 252 234 206 220 264 234 193 183 202 206 220 226 212 196 194 180 180 179 176 169 165 159 151 144 131 120 110 107 116 166 139 112 97 61 53 100
189 141 175 191 195 231 243 244 243 229 242 231 268 290 156 178 194 206 215 219 216 196 199 190 183 182 177 171 170 169 158 149 132 137 139 137 310 35 48 63 113 134 120 127
161 163 196 211 206 241 24 139 214 241 263 265 239 269 152 162 208 208 208 211 207 194 195 193 187 181 173 163 165 172 161 154 149 150 148 235 258 339 89 120 133 144 118 103
173 175 254 130 97 162 148 173 183 217 243 252 258 263 269 139 266 220 197 201 197 189 184 185 179 177 169 162 165 174 174 167 169 181 187 212 214 227 203 196 164 160 135 130
188 177 155 172 167 167 209 234 233 218 218 234 93 258 278 60 354 309 239 196 188 184 180 176 173 175 174 175 178 181 182 180 184 199 208 216 228 233 220 211 189 195 158 150
207 185 169 199 237 218 219 257 282 296 298 313 203 248 79 73 338 304 219 184 180 180 181 179 175 176 179 181 184 189 189 190 190 205 209 218 218 238 240 235 222 210 197 168
221 174 130 192 247 243 208 234 304 290 283 275 239 229 185 154 157 138 155 168 178 180 181 179 176 180 182 185 188 196 198 196 197 205 212 220 218 222 225 227 217 210 199 178
247 213 164 155 174 140 285 221 221 250 274 271 255 247 229 165 159 168 177 184 183 179 177 176 179 184 187 187 188 192 201 204 204 212 210 207 220 218 223 219 209 210 202 191
236 230 180 189 216 213 190 209 234 251 273 283 285 263 63 65 46 250 210 201 190 184 180 179 181 183 183 181 188 193 199 206 208 212 209 209 214 218 212 212 213 221 213 207
219 250 229 211 159 301 248 241 232 252 246 261 280 278 110 203 306 290 271 200 187 183 182 180 177 179 182 185 191 198 202 205 209 215 214 219 216 215 214 210 210 216 214 217
187 232 231 199 187 191 217 224 236 257 261 249 256 246 136 237 270 279 265 217 185 177 181 179 178 183 186 189 196 203 206 211 209 218 222 225 222 221 221 220 213 217 220 215
229 238 251 266 304 227 227 223 226 237 249 252 253 267 261 267 275 280 257 221 195 185 185 184 184 187 189 194 198 203 205 209 212 217 224 231 230 224 225 224 221 219 221 221
235 247 249 269 280 259 256 247 233 239 253 263 270 270 275 281 281 274 249 214 197 193 189 189 188 186 187 191 196 197 201 205 211 218 226 231 233 228 225 218 221 219 221 226
236 249 246 248 249 251 257 254 246 245 250 255 262 265 272 284 272 262 242 212 206 204 201 197 194 189 194 196 196 194 199 205 210 218 225 232 234 227 226 221 221 220 220 224
213 236 247 251 249 260 251 247 239 241 242 248 257 269 278 278 273 261 251 225 220 215 208 201 202 200 201 203 198 196 200 199 204 210 210 210 218 216 227 221 219 218 216 214
226 232 247 261 248 251 292 35 253 251 255 254 265 274 273 277 276 267 258 246 235 221 211 209 214 212 208 206 202 202 200 201 203 209 211 211 218 215 215 219 223 226 221 212
235 228 237 249 257 264 262 224 230 250 260 244 246 262 271 268 251 230 233 251 252 231 220 216 220 218 210 208 207 205 205 206 209 215 222 216 222 225 221 219 222 224 225 222
200 227 236 236 252 258 285 92 267 256 253 204 247 259 257 239 252 257 197 233 241 232 213 207 212 216 209 208 208 208 209 211 218 223 228 223 224 226 229 227 229 223 218 221
188 207 227 238 248 260 355 71 209 239 326 5 272 256 240 248 288 338 262 254 240 221 201 197 201 207 203 202 208 215 217 221 226 227 227 226 225 230 236 234 232 222 213 211
218 215 222 229 238 246 103 159 230 316 344 318 287 274 259 273 300 291 256 246 232 218 205 203 205 201 194 196 205 217 227 235 231 226 228 232 231 229 233 228 232 227 212 211
229 236 240 233 255 339 210 253 302 315 302 309 299 288 268 266 266 263 255 245 234 231 218 212 208 200 198 200 210 219 227 234 228 222 227 232 230 224 230 224 225 225 219 222
217 239 242 247 252 264 265 274 283 292 296 301 297 288 267 258 260 257 256 250 241 238 226 207 200 206 209 208 215 225 220 222 226 226 228 230 229 227 231 232 228 226 226 227
232 213 238 251 266 276 264 264 278 289 296 296 292 283 268 260 259 260 260 256 253 247 228 213 212 214 217 215 214 216 221 227 230 231 231 231 229 231 235 234 238 234 232 236
214 221 235 253 266 267 280 287 280 278 280 281 278 280 273 264 263 266 268 266 261 253 236 228 225 222 217 211 212 210 215 226 233 234 235 236 232 230 233 236 239 239 241 231